This demonstration page uses our WeatherBlox Daily Observations layout. Learn more.

Left ArrowRight Arrow

Hourly Observations for May 29, 2017

Temp ( °F °C ) Dew Point ( °F °C ) Humidity (%) Winds ( mph kmh ) Pressure ( in mb ) Visibility ( mi km ) Precip ( " mm )
12:53 am 00:53 Clear 67 19.4 48 8.9 51 51 E 7 11 29.98 1015 10 16 0.00 0.00
1:53 am 01:53 Clear 68 20 50 10 53 53 ESE 8 13 29.97 1015 10 16 0.00 0.00
2:53 am 02:53 Clear 65 18.3 50 10 59 59 E 6 9 29.96 1015 10 16 0.00 0.00
3:53 am 03:53 Clear 62 16.7 49 9.4 62 62 E 6 9 29.97 1015 10 16 0.00 0.00
4:53 am 04:53 Clear 59 15 48 8.9 67 67 NNE 6 9 29.98 1015 10 16 0.00 0.00
5:53 am 05:53 Clear 58 14.4 49 9.4 72 72 N 6 9 29.99 1016 10 16 0.00 0.00
6:53 am 06:53 Sunny 57 13.9 48 8.9 72 72 N 5 7 30.00 1016 10 16 0.00 0.00
7:53 am 07:53 Sunny 62 16.7 51 10.6 67 67 N 6 9 30.01 1016 10 16 0.00 0.00
8:53 am 08:53 Sunny 70 21.1 56 13.3 61 61 ENE 7 11 30.01 1016 10 16 0.00 0.00
9:53 am 09:53 Sunny 74 23.3 55 12.8 52 52 ESE 10 17 30.02 1017 10 16 0.00 0.00
10:53 am 10:53 Sunny 78 25.6 49 9.4 36 36 E 10 17 30.03 1017 10 16 0.00 0.00
11:53 am 11:53 Sunny 82 27.8 47 8.3 29 29 ESE 13 20 30.02 1017 10 16 0.00 0.00
12:53 pm 12:53 Sunny 84 28.9 45 7.2 25 25 ESE 10 17 30.01 1016 10 16 0.00 0.00
1:53 pm 13:53 Sunny 86 30 41 5 20 20 ESE 15 24 29.97 1015 10 16 0.00 0.00
2:53 pm 14:53 Sunny 89 31.7 39 3.9 17 17 E 12 19 29.93 1014 10 16 0.00 0.00
3:53 pm 15:53 Sunny 90 32.2 36 2.2 15 15 ESE 15 24 29.91 1013 10 16 0.00 0.00
4:53 pm 16:53 Sunny 89 31.7 35 1.7 15 15 E 15 24 29.87 1011 10 16 0.00 0.00
5:53 pm 17:53 Sunny 89 31.7 33 0.6 14 14 ESE 13 20 29.85 1011 10 16 0.00 0.00
6:13 pm 18:13 Mostly Sunny 89 31.7 32 0 13 13 ESE 13 20 29.74 1007 10 16 0.00 0.00
6:53 pm 18:53 Sunny 88 31.1 29 -1.7 12 12 E 8 13 29.83 1010 10 16 0.00 0.00
7:53 pm 19:53 Sunny 86 30 32 0 14 14 ESE 14 22 29.85 1011 10 16 0.00 0.00
8:53 pm 20:53 Clear 83 28.3 34 1.1 17 17 ESE 10 17 29.87 1012 10 16 0.00 0.00
9:53 pm 21:53 Clear 80 26.7 36 2.2 20 20 E 8 13 29.89 1012 10 16 0.00 0.00
10:53 pm 22:53 Clear 77 25 39 3.9 26 26 E 8 13 29.93 1014 10 16 0.00 0.00
11:53 pm 23:53 Mostly Cloudy 77 25 43 6.1 30 30 E 12 19 29.94 1014 10 16 0.00 0.00

Powered by AerisWeather